Location: Alta
(39.2070°N, 120.8111°W)
Time: 07:01:56
(UTC+00:00)

CZ-4B DEB - Pass Details

Date: 11 December 2023
Orbit: 838 x 858 km, 99.0° (Epoch: 02 March)

Event Time Altitude Azimuth Distance (km) Brightness Sun altitude
Rises 02:13:51 0° 139° (SE) 3,417 7.1 -17.6°
Reaches altitude 10° 02:16:24 10° 131° (SE) 2,486 6.3 -18.0°
Enters shadow 02:16:45 12° 129° (SE) 2,366 6.2 -18.1°
Exits shadow 02:20:16 32° 90° (E) 1,446 4.9 -18.7°
Maximum altitude 02:21:19 34° 67° (ENE) 1,376 4.7 -18.9°
Drops below altitude 10° 02:26:16 10° 5° (N) 2,501 6.5 -19.9°
Sets 02:28:49 0° 356° (N) 3,440 7.3 -20.4°
